Weather History for Leuchars, United Kingdom

Change the Weather History Date:

Sunday, May 12, 2013

  Actual Average Record
Temperature  
Mean Temperature 46 °F -  
Max Temperature 54 °F 56 °F 60 °F (2001)
Min Temperature 39 °F 44 °F 33 °F (2012)
Degree Days  
Heating Degree Days 18    
Moisture  
Dew Point 40 °F    
Average Humidity 74    
Maximum Humidity 93    
Minimum Humidity 48    
Precipitation  
Precipitation 0.01 in - - ()
Sea Level Pressure  
Sea Level Pressure 29.65 in    
Wind  
Wind Speed 11 mph ()    
Max Wind Speed 21 mph    
Max Gust Speed -    
Visibility 7.0 miles    
Events Rain    
Averages and records for this station are not official NWS values.
T = Trace of Precipitation, MM = Missing Value Source: Averaged Metar Reports

Daily Weather History Graph

Daily Weather History Graph

Search for Another Location

Airport:

Trip Planner

Search our weather history database for the weather conditions in past years. The results will help you decide how hot, cold, wet, or windy it might be!

Date:

Astronomy

May. 12, 2013 Rise Set
Actual Time 5:02 AM BST 9:14 PM BST
Civil Twilight 4:12 AM BST 10:04 PM BST
Nautical Twilight 2:57 AM BST 11:21 PM BST
Astronomical Twilight 1:40 AM BST 12:35 AM BST
Moon 6:38 AM BST (5/12) 11:36 PM BST (5/12)
Length of Visible Light 17h 51m
Length of Day
16h 12m
Waxing Crescent, 5% of the Moon is Illuminated
May 12
Waxing Crescent
May 18
First Quarter
May 25
Full
May 31
Last Quarter
Jun 8
New

Hourly Weather History & Observations

Time (BST) Temp. Windchill Dew Point Humidity Pressure Visibility Wind Dir Wind Speed Gust Speed Precip Events Conditions
12:50 AM 42 °F - 36 °F 73% 29.71 in 22 mi WSW 6.9 mph - -   Partly Cloudy
12:50 AM 42.8 °F 38.6 °F 35.6 °F 76% 29.71 in - WSW 6.9 mph - N/A   Clear
1:50 AM 41.0 °F 35.2 °F 35.6 °F 81% 29.71 in 6.2 mi WSW 9.2 mph - N/A   Partly Cloudy
2:50 AM 44.6 °F 39.2 °F 37.4 °F 76% 29.71 in 6.2 mi West 10.4 mph - N/A   Partly Cloudy
3:50 AM 39 °F - 37 °F 88% 29.73 in 22 mi West 8.1 mph - -   Scattered Clouds
3:50 AM 39.2 °F 33.6 °F 37.4 °F 93% 29.71 in 6.2 mi West 8.1 mph - N/A   Mostly Cloudy
4:50 AM 41.0 °F 37.1 °F 37.4 °F 87% 29.71 in 6.2 mi WNW 5.8 mph - N/A   Mostly Cloudy
5:50 AM 42.8 °F - 39.2 °F 87% 29.74 in 6.2 mi West 2.3 mph - N/A   Mostly Cloudy
6:50 AM 44 °F - 42 °F 88% 29.75 in 25 mi WSW 9.2 mph - -   Partly Cloudy
6:50 AM 44.6 °F 39.7 °F 41.0 °F 87% 29.74 in 6.2 mi WSW 9.2 mph - N/A   Mostly Cloudy
7:50 AM 50.0 °F - 42.8 °F 76% 29.74 in 6.2 mi West 13.8 mph - N/A   Mostly Cloudy
8:50 AM 50.0 °F - 41.0 °F 71% 29.74 in 6.2 mi WSW 15.0 mph - N/A   Mostly Cloudy
9:50 AM 53 °F - 39 °F 48% 29.74 in 28 mi WSW 15.0 mph - -   Partly Cloudy
9:50 AM 51.8 °F - 39.2 °F 62% 29.71 in 6.2 mi WSW 15.0 mph - N/A   Mostly Cloudy
10:50 AM 51.8 °F - 39.2 °F 62% 29.71 in 6.2 mi WSW 18.4 mph - N/A   Mostly Cloudy
11:50 AM 51.8 °F - 39.2 °F 62% 29.71 in 6.2 mi WSW 20.7 mph - N/A Rain Light Rain
12:50 PM 50 °F - 40 °F 60% 29.71 in 16 mi SW 18.4 mph - - Rain Light Rain
12:50 PM 50.0 °F - 41.0 °F 71% 29.68 in 6.2 mi SW 18.4 mph - N/A Rain Light Rain
1:50 PM 50.0 °F - 41.0 °F 71% 29.65 in 6.2 mi SW 13.8 mph - N/A Rain Light Rain
2:50 PM 51.8 °F - 42.8 °F 71% 29.62 in 6.2 mi SSW 17.3 mph - N/A   Overcast
3:50 PM 52 °F - 44 °F 64% 29.61 in 16 mi SSW 16.1 mph - -   Partly Cloudy
3:50 PM 51.8 °F - 42.8 °F 71% 29.59 in 6.2 mi SSW 16.1 mph - N/A   Overcast
4:50 PM 53.6 °F - 46.4 °F 77% 29.56 in 6.2 mi SW 18.4 mph - N/A   Overcast
5:50 PM 53.6 °F - 46.4 °F 77% 29.53 in 6.2 mi SW 19.6 mph - N/A   Mostly Cloudy
6:50 PM 53 °F - 46 °F 68% 29.54 in 25 mi WSW 20.7 mph - - Rain Light Rain
6:50 PM 53.6 °F - 46.4 °F 77% 29.53 in 6.2 mi WSW 20.7 mph - N/A   Mostly Cloudy
7:50 PM 51.8 °F - 46.4 °F 82% 29.53 in 6.2 mi SW 12.7 mph - N/A   Scattered Clouds
8:50 PM 50.0 °F - 46.4 °F 87% 29.53 in 6.2 mi WSW 19.6 mph - N/A Rain Light Rain Showers
9:50 PM 47 °F - 38 °F 61% 29.55 in 25 mi West 17.3 mph - - Rain Light Rain Showers
9:50 PM 46.4 °F 39.5 °F 37.4 °F 71% 29.53 in 6.2 mi West 17.3 mph - N/A   Mostly Cloudy
10:50 PM 44.6 °F 37.2 °F 35.6 °F 71% 29.56 in 6.2 mi West 17.3 mph - N/A   Partly Cloudy
11:50 PM 41.0 °F 32.5 °F 35.6 °F 81% 29.56 in - WSW 17.3 mph - N/A   Clear